Regional Weather Roundup
Issued by NWS

Home | Current Version | Previous Version | Graphics & Text | Print | Product List | Glossary On
Versions: 1 2 3 4 5 6 7 8 9 10 11 12 13 14 15 16 17 18 19 20 21 22 23 24 25 26 27 28 29 30 31 32 33 34 35 36 37 38 39 40 41 42 43 44 45 46 47 48 49 50
235
ASUS43 KFSD 170510
RWRSD

WEATHER ROUNDUP FOR SOUTH DAKOTA
NATIONAL WEATHER SERVICE SIOUX FALLS SD
1100 PM CST MON JAN 16 2017

NOTE: "FAIR" INDICATES FEW OR NO CLOUDS BELOW 12,000 FEET WITH NO
SIGNIFICANT WEATHER AND/OR OBSTRUCTIONS TO VISIBILITY.


SDZ001>005-009-010-012>017-170600-
NORTHWEST AND NORTH CENTRAL SOUTH DAKOTA

CITY           SKY/WX    TMP DP  RH WIND       PRES   REMARKS
BUFFALO          N/A     17   8  67 W8        29.98F WCI   7
FAITH            N/A     14  10  84 W9        30.05F WCI   2
MOBRIDGE       CLOUDY    14   8  77 N8        30.03F WCI   3
$$

SDZ012>016-024>037-041>051-057-063-072>074-170600-
SOUTHWEST AND SOUTH CENTRAL SOUTH DAKOTA

CITY           SKY/WX    TMP DP  RH WIND       PRES   REMARKS
RAPID CTY ARPT CLOUDY    16   8  71 CALM      30.06F
PIERRE         CLOUDY    11   8  88 W7        30.07S WCI   0
CUSTER         CLOUDY    24   6  46 W3        30.02F
ELLSWORTH AFB  CLOUDY    21  12  66 CALM      30.05S
PHILIP         CLOUDY    15  10  80 W9        30.09F WCI   3
PINE RIDGE     CLOUDY     7   5  91 CALM      30.08F
SPEARFISH      FAIR      27  10  50 SW3       30.05F
WINNER         FAIR      18  13  80 W9        30.07R WCI   7
$$

SDZ004>011-016>023-039-040-170600-
NORTHEAST SOUTH DAKOTA

CITY           SKY/WX    TMP DP  RH WIND       PRES   REMARKS
ABERDEEN       CLOUDY     2  -2  83 CALM      30.05S
WATERTOWN      FOG        5   2  87 CALM      29.98S VSB 1/4
BROOKINGS      CLOUDY    18  15  88 N6        29.98S WCI  10
SISSETON         N/A      7   4  87 CALM      30.02S
$$

SDZ017-020-022-023-036>040-048>070-170600-
SOUTHEAST SOUTH DAKOTA

CITY           SKY/WX    TMP DP  RH WIND       PRES   REMARKS
SIOUX FALLS    CLOUDY    29  27  92 NW5       29.98S WCI  24
HURON          CLOUDY     5   2  87 NW3       30.06R
CHAMBERLAIN    CLOUDY    15  12  89 W9        30.07R WCI   3
MITCHELL       CLOUDY    11   8  88 NW7       30.06S WCI   0
YANKTON        CLOUDY    19  12  73 CALM      30.03R
$$

ABBREVIATIONS USED IN REMARKS
   TC - TEMPERATURE IN CELSIUS
  WCI - WIND CHILL INDEX
   HX - HEAT INDEX
  VSB - VISIBILITY





USA.gov is the U.S. government's official web portal to all federal, state and local government web resources and services.